GW1004 Weather Reports


time (UTC)temp
F
wind
direction
speed
knots
gust
knots
rain 1hr
in
rain 24hr
in
rain mn
in
humidity
%
barometer
mb
20260510153452 75 326 0.9 0.9 0.00 0.00 0.00 61 1014.7
20260510152949 73 343 0.9 0.9 0.00 0.00 0.00 64 1014.6
20260510152447 73 304 0.0 0.9 0.00 0.00 0.00 62 1014.8
20260510151943 73 331 0.9 0.9 0.00 0.00 0.00 67 1014.9
20260510151440 73 283 0.9 0.9 0.00 0.00 0.00 66 1014.7
20260510150936 72 294 0.9 0.9 0.00 0.00 0.00 66 1014.7
20260510150432 73 11 1.7 1.7 0.00 0.00 0.00 64 1014.7
20260510145928 72 296 0.9 0.9 0.00 0.00 0.00 69 1014.9
20260510145425 71 46 0.0 0.9 0.00 0.00 0.00 70 1014.7
20260510144921 71 329 0.9 0.9 0.00 0.00 0.00 69 1014.8
20260510144419 71 341 0.0 0.0 0.00 0.00 0.00 72 1014.8
20260510143919 70 332 0.0 0.0 0.00 0.00 0.00 77 1014.8
20260510143415 71 334 0.9 1.7 0.00 0.00 0.00 77 1015.0
20260510142912 69 310 0.0 0.0 0.00 0.00 0.00 79 1014.9
20260510142409 68 311 0.9 0.9 0.00 0.00 0.00 78 1014.9
20260510141906 67 345 0.9 0.9 0.00 0.00 0.00 78 1015.0
20260510141403 67 337 0.0 0.9 0.00 0.00 0.00 81 1014.9
20260510140859 67 319 0.0 0.9 0.00 0.00 0.00 81 1014.7
20260510140355 67 300 0.0 0.9 0.00 0.00 0.00 79 1014.9
20260510135849 66 321 0.0 0.9 0.00 0.00 0.00 81 1014.8
20260510135345 65 11 0.9 0.9 0.00 0.00 0.00 82 1014.8
20260510134843 65 260 0.9 1.7 0.00 0.00 0.00 84 1014.8
20260510134339 62 322 0.0 0.0 0.00 0.00 0.00 92 1014.7
20260510133835 61 333 0.0 0.0 0.00 0.00 0.00 95 1014.8
20260510133332 60 329 0.0 0.0 0.00 0.00 0.00 98 1014.8
20260510132828 60 345 0.0 0.9 0.00 0.00 0.00 99 1014.9
20260510132326 59 325 0.0 0.0 0.00 0.00 0.00 99 1014.6
20260510131822 59 325 0.0 0.9 0.00 0.00 0.00 99 1014.6
20260510131320 59 323 0.0 0.0 0.00 0.00 0.00 99 1014.6
20260510130816 59 333 0.0 0.9 0.00 0.00 0.00 99 1014.9
20260510130314 58 329 0.0 0.0 0.00 0.00 0.00 99 1014.7
20260510125810 57 337 0.0 0.0 0.00 0.00 0.00 99 1014.8
20260510125307 57 323 0.0 0.0 0.00 0.00 0.00 99 1014.9
20260510124803 57 342 0.0 0.0 0.00 0.00 0.00 99 1014.9
20260510124300 56 322 0.0 0.0 0.00 0.00 0.00 99 1014.7
20260510123755 56 303 0.9 0.9 0.00 0.00 0.00 99 1014.7
20260510123251 55 10 0.9 0.9 0.00 0.00 0.00 99 1014.6
20260510122748 54 302 0.0 0.0 0.00 0.00 0.00 99 1014.6
20260510122244 55 304 0.0 0.0 0.00 0.00 0.00 99 1014.5
20260510121740 53 307 0.0 0.0 0.00 0.00 0.00 99 1014.3
20260510121238 53 306 0.0 0.0 0.00 0.00 0.00 99 1014.3
20260510120730 53 294 0.0 0.0 0.00 0.00 0.00 99 1014.2
20260510120226 53 289 0.9 0.9 0.00 0.00 0.00 99 1014.1
20260510115721 53 286 0.9 0.9 0.00 0.00 0.00 99 1014.0
20260510115220 52 291 0.0 0.0 0.00 0.00 0.00 99 1014.3
20260510114715 52 289 0.0 0.9 0.00 0.00 0.00 99 1014.0
20260510114212 52 301 0.9 0.9 0.00 0.00 0.00 99 1013.9
20260510113707 52 278 0.0 0.9 0.00 0.00 0.00 99 1013.8
20260510113204 52 296 0.0 0.0 0.00 0.00 0.00 99 1014.1
20260510112700 52 329 0.0 0.9 0.00 0.00 0.00 99 1014.2
20260510112158 51 320 0.0 0.0 0.00 0.00 0.00 99 1014.0
20260510111653 51 308 0.0 0.0 0.00 0.00 0.00 99 1013.7
20260510111150 51 284 0.9 0.9 0.00 0.00 0.00 99 1013.6
20260510110639 51 302 0.0 0.0 0.00 0.00 0.00 99 1013.7
20260510110137 51 297 0.0 0.0 0.00 0.00 0.00 99 1014.0
20260510105633 51 322 0.0 0.0 0.00 0.00 0.00 99 1014.0
20260510105132 51 335 0.0 0.0 0.00 0.00 0.00 99 1014.0
20260510104630 51 324 0.0 0.0 0.00 0.00 0.00 99 1013.7
20260510104126 50 323 0.0 0.0 0.00 0.00 0.00 99 1013.6
20260510103623 50 312 0.0 0.0 0.00 0.00 0.00 99 1013.5
20260510103119 50 310 0.0 0.0 0.00 0.00 0.00 99 1013.3
20260510102614 50 323 0.0 0.0 0.00 0.00 0.00 99 1013.2
20260510102110 50 318 0.0 0.0 0.00 0.00 0.00 99 1013.1
20260510101609 50 311 0.0 0.0 0.00 0.00 0.00 99 1013.3
20260510101107 50 310 0.0 0.0 0.00 0.00 0.00 99 1013.3
20260510100602 50 321 0.0 0.0 0.00 0.00 0.00 99 1013.4
20260510100100 50 328 0.0 0.0 0.00 0.00 0.00 99 1013.2
20260510095556 50 307 0.0 0.0 0.00 0.00 0.00 99 1013.2
20260510095055 50 308 0.0 0.0 0.00 0.00 0.00 99 1013.2
20260510094550 50 317 0.0 0.0 0.00 0.00 0.00 99 1013.2
20260510094045 50 316 0.0 0.0 0.00 0.00 0.00 99 1013.1
20260510093541 50 326 0.0 0.0 0.00 0.00 0.00 99 1012.8
20260510093038 50 307 0.0 0.0 0.00 0.00 0.00 99 1013.1
20260510092535 50 298 0.0 0.0 0.00 0.00 0.00 99 1013.1
20260510092030 50 322 0.0 0.0 0.00 0.00 0.00 99 1013.0
20260510091527 50 327 0.0 0.0 0.00 0.00 0.00 99 1013.0
20260510091023 50 307 0.0 0.0 0.00 0.00 0.00 99 1013.0
20260510090520 50 322 0.0 0.0 0.00 0.00 0.00 99 1013.1
20260510090016 50 308 0.0 0.0 0.00 0.00 0.00 99 1013.2
20260510085516 50 347 0.9 0.9 0.00 0.00 0.00 99 1013.2
20260510085012 50 325 0.0 0.0 0.00 0.00 0.00 99 1013.1
20260510084509 49 313 0.0 0.0 0.00 0.00 0.00 99 1013.2
20260510084005 49 316 0.0 0.0 0.00 0.00 0.00 99 1013.2
20260510083502 49 329 0.0 0.9 0.00 0.00 0.00 99 1013.2
20260510082957 50 340 1.7 1.7 0.00 0.00 0.00 99 1013.2
20260510082455 50 334 1.7 1.7 0.00 0.00 0.00 99 1012.9
20260510081955 50 334 1.7 1.7 0.00 0.00 0.00 99 1013.0
20260510081451 50 344 0.9 1.7 0.00 0.00 0.00 99 1012.9
20260510080947 50 322 0.0 0.0 0.00 0.00 0.00 99 1012.5
20260510080445 50 319 0.0 0.0 0.00 0.00 0.00 99 1012.6
20260510075943 50 323 0.0 0.0 0.00 0.00 0.00 99 1012.3
20260510075440 50 321 0.0 0.0 0.00 0.00 0.00 99 1012.4
20260510074937 50 318 0.0 0.0 0.00 0.00 0.00 99 1012.5
20260510074434 50 324 0.0 0.0 0.00 0.00 0.00 99 1012.4
20260510073930 50 323 0.0 0.0 0.00 0.00 0.00 99 1012.3
20260510073426 50 322 0.0 0.0 0.00 0.00 0.00 99 1012.4
20260510072923 50 328 0.0 0.0 0.00 0.00 0.00 99 1012.6
20260510072420 50 339 0.9 0.9 0.00 0.00 0.00 99 1012.4
20260510071915 50 336 0.9 1.7 0.00 0.00 0.00 99 1012.5
20260510071412 50 357 0.9 1.7 0.00 0.00 0.00 99 1012.5
20260510070910 50 354 1.7 1.7 0.00 0.00 0.00 99 1012.7
20260510070407 49 340 1.7 1.7 0.00 0.00 0.00 99 1012.4
20260510065902 50 346 1.7 1.7 0.00 0.00 0.00 99 1012.1
20260510065359 50 342 0.9 0.9 0.00 0.00 0.00 99 1012.0
20260510064855 51 344 2.6 2.6 0.00 0.00 0.00 99 1012.0
20260510064354 51 293 0.0 0.0 0.00 0.00 0.00 99 1011.9
20260510063849 51 278 0.0 0.0 0.00 0.00 0.00 99 1012.0
20260510063346 51 272 0.0 0.0 0.00 0.00 0.00 99 1011.7
20260510062843 51 274 0.0 0.0 0.00 0.00 0.00 99 1011.8
20260510062338 51 285 0.0 0.0 0.00 0.00 0.00 99 1011.8
20260510061834 51 284 0.0 0.0 0.00 0.00 0.00 99 1011.9
20260510061331 51 293 0.0 0.0 0.00 0.00 0.00 99 1011.9
20260510060827 51 293 0.0 0.0 0.00 0.00 0.00 99 1012.2
20260510060324 52 292 0.0 0.0 0.00 0.00 0.00 99 1012.0
20260510055821 52 287 0.0 0.0 0.00 0.00 0.00 99 1011.8
20260510055320 52 274 0.0 0.0 0.00 0.00 0.00 99 1012.0
20260510054819 52 256 0.0 0.0 0.00 0.00 0.00 99 1012.1
20260510054315 52 253 0.0 0.0 0.00 0.00 0.00 99 1012.0
20260510053810 52 253 0.0 0.0 0.00 0.00 0.00 99 1012.3
20260510053305 52 253 0.0 0.0 0.00 0.00 0.00 99 1012.3
20260510052802 52 251 0.0 0.0 0.00 0.00 0.00 99 1012.4
20260510052257 52 260 0.0 0.0 0.00 0.00 0.00 99 1012.3
20260510051754 52 265 0.0 0.0 0.00 0.00 0.00 99 1012.4
20260510051245 52 266 0.0 0.0 0.00 0.00 0.00 99 1012.3
20260510050742 52 278 0.0 0.0 0.00 0.00 0.00 99 1012.4
20260510050239 52 289 0.0 0.0 0.00 0.00 0.00 99 1012.5
20260510045736 52 296 0.0 0.0 0.00 0.00 0.00 99 1012.5
20260510045232 52 293 0.0 0.0 0.00 0.00 0.00 99 1012.6
20260510044729 52 303 0.0 0.0 0.00 0.00 0.00 99 1012.4
20260510044227 52 299 0.0 0.0 0.00 0.00 0.00 99 1012.5
20260510043722 52 307 0.0 0.0 0.00 0.00 0.00 99 1012.8
20260510043219 52 304 0.0 0.0 0.00 0.00 0.00 99 1012.6
20260510042716 52 305 0.0 0.0 0.00 0.00 0.00 99 1012.7
20260510042212 52 310 0.0 0.0 0.00 0.00 0.00 99 1012.6
20260510041709 52 311 0.0 0.0 0.00 0.00 0.00 99 1012.5
20260510041207 52 311 0.0 0.0 0.00 0.00 0.00 99 1012.7
20260510040703 52 311 0.0 0.0 0.00 0.00 0.00 99 1012.7
20260510040200 52 311 0.0 0.0 0.00 0.00 0.00 99 1012.9
20260510035656 52 311 0.0 0.0 0.00 0.13 0.13 99 1012.8
20260510035151 52 311 0.0 0.0 0.00 0.13 0.13 98 1012.7
20260510034648 52 311 0.0 0.0 0.00 0.13 0.13 98 1012.7
20260510034145 53 311 0.0 0.0 0.00 0.13 0.13 98 1012.7
20260510033641 53 310 0.0 0.9 0.00 0.13 0.13 98 1012.6
20260510033139 53 265 0.0 0.0 0.00 0.13 0.13 98 1012.5
20260510032635 53 256 0.0 0.0 0.00 0.13 0.13 98 1012.5
20260510032131 53 255 0.0 0.0 0.00 0.13 0.13 98 1012.5
20260510031626 53 255 0.0 0.0 0.00 0.13 0.13 98 1012.3
20260510031123 53 255 0.0 0.0 0.00 0.13 0.13 98 1012.2
20260510030617 53 255 0.0 0.0 0.00 0.13 0.13 98 1012.4
20260510030115 53 255 0.0 0.9 0.00 0.13 0.13 98 1012.3
20260510025612 53 255 0.0 0.9 0.00 0.13 0.13 99 1012.0
20260510025110 53 255 0.9 0.9 0.00 0.13 0.13 99 1012.1
20260510024606 53 254 0.9 0.9 0.00 0.13 0.13 99 1012.2
20260510024103 53 254 0.9 0.9 0.00 0.13 0.13 99 1012.2
20260510023559 53 264 0.9 0.9 0.00 0.13 0.13 99 1012.3
20260510023057 53 279 0.0 0.0 0.00 0.13 0.13 99 1012.2
20260510022555 53 240 0.9 0.9 0.00 0.13 0.13 99 1012.2
20260510022050 53 244 0.9 0.9 0.00 0.13 0.13 99 1012.1
20260510021547 53 241 0.9 0.9 0.00 0.13 0.13 99 1012.1
20260510021044 53 243 0.9 0.9 0.00 0.13 0.13 99 1012.2
20260510020538 53 242 0.9 0.9 0.00 0.13 0.13 99 1012.1
20260510020034 53 241 0.9 0.9 0.00 0.13 0.13 99 1012.0
20260510015530 53 240 0.9 0.9 0.00 0.13 0.13 99 1012.1
20260510015026 53 244 0.9 0.9 0.00 0.13 0.13 99 1012.0
20260510014523 53 245 0.9 0.9 0.00 0.13 0.13 99 1012.1
20260510014020 53 255 0.9 0.9 0.00 0.13 0.13 99 1012.1
20260510013515 53 250 0.9 0.9 0.00 0.13 0.13 99 1012.1
20260510013011 53 233 0.9 0.9 0.00 0.13 0.13 99 1012.2
20260510012505 53 235 0.9 0.9 0.00 0.13 0.13 99 1011.9
20260510012001 53 241 0.9 1.7 0.00 0.13 0.13 99 1012.0
20260510011455 53 251 0.9 1.7 0.00 0.13 0.13 99 1012.0
20260510010951 53 268 0.9 0.9 0.00 0.13 0.13 99 1011.9
20260510010449 53 276 0.0 0.9 0.00 0.13 0.13 99 1012.0
20260510005946 53 275 0.9 0.9 0.00 0.13 0.13 99 1011.8
20260510005442 53 290 0.0 0.0 0.00 0.13 0.13 99 1011.9
20260510004939 53 296 0.0 0.0 0.00 0.13 0.13 99 1011.8
20260510004436 54 295 0.9 0.9 0.00 0.13 0.13 99 1011.6
20260510003934 53 329 0.0 0.0 0.00 0.13 0.13 99 1011.6
20260510003431 53 323 0.0 0.0 0.00 0.13 0.13 99 1011.6
20260510002930 53 320 0.0 0.0 0.00 0.13 0.13 99 1011.6
20260510002427 53 320 0.0 0.0 0.00 0.13 0.13 99 1011.6
20260510001924 53 321 0.0 0.0 0.00 0.13 0.13 99 1011.7
20260510001421 53 322 0.0 0.0 0.00 0.13 0.13 99 1011.8
20260510000919 53 322 0.0 0.0 0.00 0.13 0.13 99 1011.5
20260510000415 54 322 0.0 0.0 0.00 0.13 0.13 99 1011.4
20260509235911 54 324 0.0 0.0 0.00 0.13 0.13 99 1011.6
20260509235409 54 325 0.0 0.0 0.00 0.13 0.13 99 1011.6
20260509234904 54 324 0.0 0.0 0.00 0.13 0.13 99 1011.6
20260509234402 54 323 0.0 0.0 0.00 0.13 0.13 99 1011.6
20260509233900 54 325 0.0 0.0 0.00 0.13 0.13 99 1011.8
20260509233357 54 325 0.0 0.0 0.00 0.13 0.13 99 1011.5
20260509232852 54 325 0.0 0.0 0.00 0.13 0.13 99 1011.7
20260509232351 54 326 0.0 0.0 0.00 0.13 0.13 99 1011.6
20260509231846 55 326 0.9 0.9 0.00 0.13 0.13 98 1011.6
20260509231343 55 315 0.0 0.0 0.00 0.13 0.13 98 1011.4
20260509230841 55 310 0.0 0.0 0.00 0.13 0.13 98 1011.5
20260509230332 55 310 0.0 0.0 0.00 0.13 0.13 98 1011.4
20260509225827 55 310 0.0 0.0 0.00 0.13 0.13 99 1011.4
20260509225325 55 308 0.0 0.0 0.00 0.13 0.13 98 1011.3
20260509224821 55 306 0.0 0.0 0.00 0.13 0.13 98 1011.4
20260509224317 55 306 0.0 0.0 0.00 0.13 0.13 98 1011.5
20260509223814 55 308 0.0 0.0 0.00 0.13 0.13 99 1011.6
20260509223310 55 289 0.0 0.0 0.00 0.13 0.13 98 1011.5
20260509222807 55 267 0.9 0.9 0.00 0.13 0.13 98 1011.6
20260509222306 55 263 0.9 0.9 0.00 0.13 0.13 98 1011.5
20260509221758 55 266 0.9 0.9 0.00 0.13 0.13 98 1011.6
20260509221256 55 285 0.0 0.9 0.00 0.13 0.13 98 1011.4
20260509220751 55 285 0.0 0.9 0.00 0.13 0.13 98 1011.6
20260509220248 55 269 0.9 0.9 0.00 0.13 0.13 98 1011.7
20260509215743 55 276 0.0 0.0 0.00 0.13 0.13 98 1011.7
20260509215240 55 284 0.0 0.0 0.00 0.13 0.13 98 1011.6
20260509214737 55 295 0.0 0.0 0.00 0.13 0.13 98 1011.5
20260509214234 55 299 0.0 0.0 0.00 0.13 0.13 98 1011.7
20260509213731 55 280 0.0 0.9 0.00 0.13 0.13 97 1011.5
20260509213226 55 301 0.0 0.0 0.00 0.13 0.13 97 1011.7
20260509212724 55 327 0.0 0.0 0.00 0.13 0.13 97 1012.0
20260509212221 55 292 0.0 0.0 0.00 0.13 0.13 97 1011.8
20260509211717 55 328 0.0 0.0 0.00 0.13 0.13 97 1011.9
20260509211214 55 290 0.0 0.9 0.00 0.13 0.13 97 1011.9
20260509210710 55 311 0.0 0.0 0.00 0.13 0.13 97 1011.9
20260509210208 56 317 0.0 0.9 0.00 0.13 0.13 97 1011.8
20260509205707 55 307 0.0 0.0 0.00 0.13 0.13 97 1011.7
20260509205207 55 307 0.0 0.0 0.05 0.13 0.13 97 1011.8
20260509204703 55 291 0.0 0.0 0.28 0.13 0.13 97 1011.8
20260509204200 55 291 0.0 0.9 0.35 0.13 0.13 97 1011.5
20260509203656 55 328 0.0 0.9 0.07 0.08 0.08 96 1011.9
20260509203154 55 319 0.0 0.0 0.00 0.07 0.07 96 1011.6
20260509202650 55 305 0.9 0.9 0.00 0.07 0.07 96 1011.4
20260509202144 55 285 0.0 0.0 0.00 0.07 0.07 96 1011.4
20260509201640 55 328 0.0 0.0 0.00 0.07 0.07 97 1011.5
20260509201137 56 323 0.0 0.9 0.00 0.07 0.07 97 1011.8
20260509200633 55 319 0.0 0.0 0.00 0.07 0.07 97 1011.8
20260509200128 55 219 1.7 1.7 0.00 0.07 0.07 96 1011.6
20260509195624 55 326 0.0 0.0 0.00 0.07 0.07 97 1011.6
20260509195120 55 313 0.0 0.0 0.00 0.07 0.07 97 1011.7
20260509194618 55 306 0.0 0.0 0.05 0.07 0.07 96 1011.8
20260509194116 55 321 0.0 0.0 0.05 0.07 0.07 96 1011.9
20260509193612 55 325 0.0 0.0 0.00 0.06 0.06 96 1012.0
20260509193108 55 304 0.9 0.9 0.00 0.06 0.06 96 1012.4
20260509192605 55 359 0.9 1.7 0.00 0.06 0.06 96 1012.2
20260509192100 55 332 0.9 0.9 0.07 0.06 0.06 96 1012.2
20260509191555 55 339 0.0 0.0 0.07 0.06 0.06 96 1012.4
20260509191051 55 339 0.0 0.0 0.00 0.05 0.05 96 1012.6
20260509190548 55 346 0.0 0.0 0.00 0.05 0.05 96 1012.8
20260509190046 56 331 0.0 0.0 0.00 0.05 0.05 96 1012.6
20260509185543 55 323 0.9 0.9 0.00 0.05 0.05 96 1012.8
20260509185039 56 337 0.9 0.9 0.00 0.05 0.05 96 1012.6
20260509184537 56 316 0.0 0.0 0.00 0.05 0.05 95 1012.5
20260509184033 56 331 0.0 0.9 0.05 0.05 0.05 95 1012.6
20260509183523 55 333 0.9 0.9 0.05 0.05 0.05 95 1012.8
20260509183019 55 13 0.0 0.9 0.07 0.04 0.04 94 1012.7
20260509182516 55 253 0.9 0.9 0.12 0.04 0.04 94 1012.8
20260509182013 55 328 0.0 0.9 0.05 0.03 0.03 93 1012.9
20260509181511 55 339 0.9 0.9 0.00 0.02 0.02 93 1013.1
20260509181010 56 333 0.9 0.9 0.00 0.02 0.02 92 1012.9
20260509180503 56 323 0.0 0.0 0.07 0.02 0.02 91 1013.0
20260509180002 56 317 0.0 0.0 0.07 0.02 0.02 90 1013.1
20260509175457 56 346 0.0 0.9 0.07 0.01 0.01 88 1012.9
20260509174954 57 332 0.9 0.9 0.07 0.01 0.01 86 1013.1
20260509174450 58 345 1.7 1.7 0.00 0.00 0.00 84 1012.8
20260509173944 58 331 0.0 0.9 0.00 0.00 0.00 82 1012.9
20260509173439 59 340 0.0 0.9 0.00 0.00 0.00 80 1012.8
20260509172936 59 334 0.0 0.9 0.00 0.00 0.00 81 1012.8
20260509172433 59 340 0.0 0.0 0.00 0.00 0.00 80 1012.8
20260509171929 59 339 0.0 0.0 0.00 0.00 0.00 80 1012.7
20260509171425 59 337 0.9 0.9 0.00 0.00 0.00 82 1012.6
20260509170921 58 330 0.0 0.0 0.00 0.00 0.00 83 1012.8
20260509170417 58 341 0.9 0.9 0.00 0.00 0.00 84 1012.9
20260509165913 58 325 0.9 1.7 0.00 0.00 0.00 85 1013.0
20260509165407 59 359 0.9 1.7 0.00 0.00 0.00 86 1013.0
20260509164903 59 321 0.0 0.9 0.00 0.00 0.00 88 1012.8
20260509164359 58 333 0.9 0.9 0.00 0.00 0.00 88 1012.8
20260509163855 58 326 0.0 0.0 0.00 0.00 0.00 89 1012.9
20260509163352 58 324 0.0 0.0 0.00 0.00 0.00 89 1012.8
20260509162851 58 310 0.9 0.9 0.00 0.00 0.00 89 1012.9
20260509162350 58 334 0.0 0.9 0.00 0.00 0.00 88 1013.0
20260509161846 58 336 0.9 1.7 0.00 0.00 0.00 87 1013.0
20260509161342 58 5 1.7 2.6 0.00 0.00 0.00 86 1013.1
20260509160838 59 328 0.9 0.9 0.00 0.00 0.00 85 1013.4
20260509160334 59 336 0.9 0.9 0.00 0.00 0.00 82 1013.4
20260509155829 60 341 0.0 0.9 0.00 0.00 0.00 81 1013.5
20260509155326 61 314 0.0 0.9 0.00 0.00 0.00 79 1013.5
20260509154823 61 289 0.0 0.0 0.00 0.00 0.00 78 1013.5
20260509154319 61 280 0.9 0.9 0.00 0.00 0.00 77 1013.7
20260509153816 61 314 0.9 0.9 0.00 0.00 0.00 76 1013.5